• In Kazakhstan
  • List of Countries
  • For 7 days
  • Water Temperature
  • Weather Map
  • News
  • Weather Widgets
  • user-avatar
    Login

    Hourly Weather Aylesbury

    Today, 14 November, Thursday

    Time Temperature Precipitation Wind Pressure Humidity
    00:00 +5°C° 0 mm 4 mps 734 mmHg 91%
    01:00 +5°C° 2.2 mm 4 mps 734 mmHg 92%
    02:00 +5°C° 2.2 mm 4 mps 734 mmHg 94%
    03:00 +4°C° 2.2 mm 4 mps 734 mmHg 95%
    04:00 +3°C° 2.3 mm 5 mps 734 mmHg 94%
    05:00 +3°C° 2.3 mm 5 mps 734 mmHg 94%
    06:00 +4°C° 0 mm 4 mps 735 mmHg 93%
    07:00 +3°C° 0.4 mm 3 mps 735 mmHg 92%
    08:00 +3°C° 0.4 mm 3 mps 736 mmHg 92%
    09:00 +3°C° 0.4 mm 3 mps 737 mmHg 92%
    10:00 +4°C° 0.1 mm 3 mps 737 mmHg 89%
    11:00 +5°C° 0.1 mm 2 mps 737 mmHg 86%
    12:00 +6°C° 0.1 mm 2 mps 738 mmHg 83%
    13:00 +6°C° 0 mm 2 mps 738 mmHg 83%
    14:00 +6°C° 0 mm 2 mps 739 mmHg 83%
    15:00 +6°C° 0 mm 2 mps 740 mmHg 83%
    16:00 +5°C° 0 mm 2 mps 740 mmHg 86%
    17:00 +4°C° 0 mm 3 mps 741 mmHg 90%
    18:00 +3°C° 0 mm 3 mps 742 mmHg 93%
    19:00 +3°C° 0 mm 3 mps 742 mmHg 93%
    20:00 +3°C° 0 mm 3 mps 743 mmHg 94%
    21:00 +2°C° 0 mm 3 mps 744 mmHg 95%
    22:00 +2°C° 0.1 mm 3 mps 744 mmHg 94%
    23:00 +2°C° 0.1 mm 3 mps 744 mmHg 94%

    Tomorrow, 15 November, Friday

    Time Temperature Precipitation Wind Pressure Humidity
    00:00 +2°C° 0.1 mm 3 mps 745 mmHg 94%
    01:00 +2°C° 0 mm 3 mps 745 mmHg 93%
    02:00 +3°C° 0 mm 3 mps 745 mmHg 93%
    03:00 +3°C° 0 mm 3 mps 745 mmHg 92%
    04:00 +3°C° 0 mm 4 mps 745 mmHg 92%
    05:00 +3°C° 0 mm 4 mps 746 mmHg 92%
    06:00 +1°C° 0 mm 4 mps 746 mmHg 92%
    07:00 +2°C° 0 mm 5 mps 746 mmHg 92%
    08:00 +2°C° 0 mm 5 mps 746 mmHg 91%
    09:00 +3°C° 0 mm 6 mps 747 mmHg 91%
    10:00 +4°C° 0 mm 6 mps 746 mmHg 88%
    11:00 +5°C° 0 mm 6 mps 746 mmHg 85%
    12:00 +6°C° 0 mm 7 mps 746 mmHg 82%
    13:00 +6°C° 0.1 mm 7 mps 745 mmHg 81%
    14:00 +5°C° 0.1 mm 7 mps 745 mmHg 81%
    15:00 +5°C° 0.1 mm 8 mps 745 mmHg 80%
    16:00 +5°C° 0.1 mm 8 mps 745 mmHg 82%
    17:00 +5°C° 0.1 mm 8 mps 745 mmHg 83%
    18:00 +5°C° 0.1 mm 9 mps 745 mmHg 85%
    19:00 +5°C° 0.4 mm 8 mps 745 mmHg 86%
    20:00 +5°C° 0.4 mm 7 mps 745 mmHg 88%
    21:00 +5°C° 0.4 mm 7 mps 745 mmHg 89%
    22:00 +5°C° 0.2 mm 6 mps 745 mmHg 90%
    23:00 +6°C° 0.2 mm 5 mps 745 mmHg 92%

    Day after tomorrow, 16 November, Saturday

    Time Temperature Precipitation Wind Pressure Humidity
    00:00 +6°C° 0.2 mm 4 mps 745 mmHg 93%
    01:00 +6°C° 0 mm 4 mps 745 mmHg 93%
    02:00 +7°C° 0 mm 3 mps 745 mmHg 94%
    03:00 +7°C° 0 mm 3 mps 745 mmHg 95%
    04:00 +7°C° 0 mm 3 mps 745 mmHg 95%
    05:00 +6°C° 0 mm 2 mps 745 mmHg 96%
    06:00 +7°C° 0 mm 1 mps 746 mmHg 96%
    07:00 +7°C° 0 mm 1 mps 746 mmHg 95%
    08:00 +7°C° 0 mm 1 mps 746 mmHg 94%
    09:00 +6°C° 0 mm 0 mps 747 mmHg 93%
    10:00 +8°C° 0 mm 1 mps 747 mmHg 90%
    11:00 +9°C° 0 mm 1 mps 747 mmHg 87%
    12:00 +8°C° 0 mm 2 mps 747 mmHg 84%
    13:00 +8°C° 0 mm 2 mps 747 mmHg 85%
    14:00 +8°C° 0 mm 2 mps 747 mmHg 86%
    15:00 +7°C° 0 mm 2 mps 747 mmHg 87%
    16:00 +7°C° 0.2 mm 2 mps 747 mmHg 88%
    17:00 +6°C° 0.2 mm 2 mps 748 mmHg 89%
    18:00 +6°C° 0.2 mm 2 mps 748 mmHg 90%
    19:00 +6°C° 0.2 mm 2 mps 748 mmHg 90%
    20:00 +6°C° 0.2 mm 2 mps 748 mmHg 91%
    21:00 +6°C° 0.2 mm 2 mps 748 mmHg 91%
    22:00 +6°C° 0.2 mm 2 mps 748 mmHg 91%
    23:00 +6°C° 0.2 mm 2 mps 748 mmHg 92%

    17 November, Sunday

    Time Temperature Precipitation Wind Pressure Humidity
    00:00 +6°C° 0.2 mm 2 mps 749 mmHg 93%
    01:00 +6°C° 0.2 mm 2 mps 748 mmHg 92%
    02:00 +6°C° 0.2 mm 2 mps 748 mmHg 92%
    03:00 +6°C° 0.2 mm 2 mps 748 mmHg 92%
    04:00 +7°C° 0.2 mm 1 mps 748 mmHg 92%
    05:00 +7°C° 0.2 mm 1 mps 749 mmHg 92%
    06:00 +7°C° 0.2 mm 1 mps 749 mmHg 91%
    07:00 +7°C° 0.1 mm 1 mps 749 mmHg 91%
    08:00 +7°C° 0.1 mm 1 mps 749 mmHg 91%
    09:00 +7°C° 0.1 mm 1 mps 750 mmHg 91%
    10:00 +8°C° 0.1 mm 1 mps 750 mmHg 91%
    11:00 +7°C° 0.1 mm 2 mps 750 mmHg 91%
    12:00 +8°C° 0.1 mm 2 mps 750 mmHg 90%
    13:00 +7°C° 0.3 mm 2 mps 750 mmHg 91%
    14:00 +7°C° 0.3 mm 2 mps 750 mmHg 92%
    15:00 +7°C° 0.3 mm 3 mps 750 mmHg 94%
    16:00 +7°C° 0.2 mm 3 mps 750 mmHg 93%
    17:00 +6°C° 0.2 mm 4 mps 750 mmHg 93%
    18:00 +6°C° 0.2 mm 4 mps 750 mmHg 93%
    19:00 +5°C° 0 mm 5 mps 750 mmHg 92%
    20:00 +5°C° 0 mm 5 mps 750 mmHg 91%
    21:00 +5°C° 0 mm 5 mps 750 mmHg 90%
    22:00 +5°C° 0 mm 5 mps 750 mmHg 90%
    23:00 +3°C° 0 mm 5 mps 750 mmHg 90%

    18 November, Monday

    Time Temperature Precipitation Wind Pressure Humidity
    00:00 +3°C° 0 mm 5 mps 749 mmHg 90%
    01:00 +3°C° 0 mm 5 mps 749 mmHg 92%
    02:00 +3°C° 0 mm 4 mps 749 mmHg 93%
    03:00 +1°C° 0 mm 4 mps 749 mmHg 94%
    04:00 +1°C° 0 mm 4 mps 749 mmHg 93%
    05:00 +1°C° 0 mm 4 mps 749 mmHg 93%
    06:00 +1°C° 0 mm 4 mps 749 mmHg 92%
    07:00 +1°C° 0 mm 4 mps 749 mmHg 91%
    08:00 +1°C° 0 mm 5 mps 749 mmHg 91%
    09:00 +1°C° 0 mm 5 mps 749 mmHg 90%
    10:00 +2°C° 0 mm 5 mps 749 mmHg 88%
    11:00 +3°C° 0 mm 5 mps 749 mmHg 86%
    12:00 +5°C° 0 mm 5 mps 749 mmHg 84%
    13:00 +5°C° 0 mm 5 mps 748 mmHg 84%
    14:00 +4°C° 0 mm 4 mps 748 mmHg 83%
    15:00 +4°C° 0 mm 4 mps 748 mmHg 83%
    16:00 +4°C° 0 mm 4 mps 748 mmHg 83%
    17:00 +4°C° 0 mm 4 mps 748 mmHg 83%
    18:00 +3°C° 0 mm 3 mps 748 mmHg 83%
    19:00 +3°C° 0 mm 3 mps 748 mmHg 86%
    20:00 +2°C° 0 mm 3 mps 748 mmHg 88%
    21:00 +2°C° 0 mm 3 mps 748 mmHg 90%
    22:00 +2°C° 0 mm 3 mps 748 mmHg 92%
    23:00 +2°C° 0 mm 3 mps 748 mmHg 93%

    19 November, Tuesday

    Time Temperature Precipitation Wind Pressure Humidity
    00:00 +2°C° 0 mm 2 mps 748 mmHg 94%
    01:00 +2°C° 0 mm 2 mps 748 mmHg 94%
    02:00 +2°C° 0 mm 2 mps 748 mmHg 94%
    03:00 +2°C° 0 mm 2 mps 747 mmHg 94%
    04:00 +1°C° 0 mm 2 mps 747 mmHg 93%
    05:00 +1°C° 0 mm 2 mps 747 mmHg 93%
    06:00 +1°C° 0 mm 2 mps 747 mmHg 92%
    07:00 +1°C° 0 mm 2 mps 747 mmHg 90%
    08:00 +2°C° 0 mm 2 mps 747 mmHg 89%
    09:00 +1°C° 0 mm 3 mps 747 mmHg 87%
    10:00 +2°C° 0 mm 3 mps 747 mmHg 85%
    11:00 +4°C° 0 mm 4 mps 747 mmHg 83%
    12:00 +5°C° 0 mm 4 mps 746 mmHg 80%
    13:00 +5°C° 0 mm 4 mps 746 mmHg 81%
    14:00 +5°C° 0 mm 4 mps 745 mmHg 82%
    15:00 +6°C° 0 mm 4 mps 745 mmHg 82%
    16:00 +6°C° 0 mm 5 mps 744 mmHg 85%
    17:00 +6°C° 0 mm 5 mps 744 mmHg 88%
    18:00 +5°C° 0 mm 6 mps 743 mmHg 91%
    19:00 +5°C° 0.5 mm 6 mps 743 mmHg 91%
    20:00 +7°C° 0.5 mm 6 mps 743 mmHg 92%
    21:00 +8°C° 0.5 mm 7 mps 743 mmHg 92%
    22:00 +6°C° 0.1 mm 7 mps 743 mmHg 92%
    23:00 +6°C° 0.1 mm 7 mps 743 mmHg 91%
    Show more